Location: Ostrava
(49.8330°N, 18.2830°E)
Time: 15:47:35
(UTC+02:00)

NOAA 19 - Visible Passes

Search period start: 20 April 2014 00:00
Search period end: 30 April 2014 00:00
Orbit: 844 x 863 km, 98.9° (Epoch: 19 April)

Date Brightness Start Highest point End Pass type
(mag) Time Alt. Az. Time Alt. Az. Time Alt. Az.
20 Apr 6.0 02:32:29 10° NNE 02:37:50 45° E 02:39:55 32° SSE visible
20 Apr 6.1 04:13:29 10° N 04:18:26 34° WNW 04:21:59 17° WSW visible
21 Apr 6.3 02:21:36 10° NNE 02:26:46 37° E 02:28:53 28° SE visible
21 Apr 5.9 04:02:22 10° N 04:07:32 41° WNW 04:10:57 20° WSW visible
22 Apr 6.6 02:10:46 10° NNE 02:15:40 31° E 02:17:51 24° SE visible
22 Apr 5.6 03:51:16 10° N 03:56:37 48° WNW 03:59:55 22° SW visible
23 Apr 6.8 01:59:59 10° NE 02:04:34 26° E 02:06:49 20° SE visible
23 Apr 5.4 03:40:12 10° N 03:45:40 58° WNW 03:48:53 25° SW visible
24 Apr 7.1 01:49:16 10° NE 01:53:26 21° E 01:55:46 17° ESE visible
24 Apr 5.3 03:29:09 10° NNE 03:34:42 70° WNW 03:37:50 27° SSW visible
25 Apr 7.3 01:38:40 10° NE 01:42:17 17° E 01:44:44 13° ESE visible
25 Apr 5.2 03:18:08 10° NNE 03:23:44 83° WNW 03:26:48 28° SSW visible
26 Apr 7.5 01:28:16 10° NE 01:31:07 14° E 01:33:41 11° ESE visible
26 Apr 5.2 03:07:07 10° NNE 03:12:44 82° ESE 03:15:45 28° S visible
26 Apr 6.8 04:48:51 10° N 04:52:50 21° NW 04:56:49 10° W visible
27 Apr 7.6 01:18:18 10° ENE 01:19:55 11° E 01:21:33 10° E visible
27 Apr 5.4 02:56:09 10° NNE 03:01:43 68° ESE 03:04:42 28° S visible
27 Apr 6.6 04:37:38 10° N 04:41:59 24° WNW 04:46:19 10° WSW visible
28 Apr 5.7 02:45:11 10° NNE 02:50:41 56° E 02:53:40 27° S visible
28 Apr 6.4 04:26:27 10° N 04:31:07 28° WNW 04:35:44 10° WSW visible
29 Apr 6.0 02:34:16 10° NNE 02:39:37 46° E 02:42:36 24° SSE visible
29 Apr 6.2 04:15:18 10° N 04:20:13 33° WNW 04:24:40 12° WSW visible
